Weather in Il'yichevo

Russia / Krasnoyarsk Krai     53°16′32″N   91°50′53″E
temp.,
°C
wind,
m/s
gust,
m/s
humid.,
%
clouds,
%
prec.,
mm/h
press.,
hPa
HPBL,
m
16 april, fri
fri1601:00+2se119554 0.0 102410
04:00+2sse119122 0.0 102210
07:00+2s118372 0.0 102217
10:00+8se016297 0.0 1019264
13:00+13w485092 0.0 10171146
16:00+16w71044100 0.0 10152387
19:00+13wsw713535 0.0 1014545
22:00+9sw411685 0.0 1014251
17 april, sat
sat1701:00+7sw4106870 0.0 1013203
04:00+9sw61462100 0.0 1011425
07:00+9wsw51369100 0.2 1011444
10:000nnw3798100 9.0 1018543
13:00+1n3495100 10.6 1020558
16:00+3ne2378100 0.4 1020778
19:00+3e227985 0.5 101974
22:00+1nnw227998 0.1 102159
18 april, sun
sun1801:00−2nnw117897 0.1 102222
04:00−3e118359 0.0 102210
07:00−2ese228770 0.0 1022137
10:00+2ese227798 0.0 1019431
13:00+5w2368100 0.0 1017783
16:00+8ssw4856100 0.0 10141458
19:00+6wsw51261100 0.0 1013390
22:00+4sw3675100 0.0 1013113
19 april, mon
mon1901:00+3sse498197 0.0 1008123
04:00+7ssw8175661 0.0 1002362
07:00+5wsw91878100 0.8 1005876
10:00+7wsw91569100 0.1 10081512
13:00+4nnw61265100 0.9 1012991
16:000n5674100 0.3 1019847
19:00−2nne3492100 1.9 1022419
22:00−3nne2396100 1.2 1024304
20 april, tue
tue2001:00−4nne1388100 2.9 1026339
04:00−5nw2487100 0.5 1027597
07:00−5nnw2366100 0.6 1028879
10:00−4n226297 0.0 10291008
13:00−2nnw345326 0.1 10271381
16:000nnw22445 0.0 10261300
19:00−1n225197 0.0 102699
22:00−3nne246399 0.0 1027136